HAWK-B

Last updated on July 6, 2021, 3:44 p.m. UTC

1 43794U 18099AN  21186.73541533  .00000523  00000-0  51275-4 0  9997
2 43794  97.6615 257.8149 0014723 359.9443   0.1774 14.96322666141272
UTC
Height (km)
Latitude
Longitude
Inclination
Orbital Period
UTC large
Height (km)
Speed (km/s)
/
Latitude / Longitude
Inclination (degrees)
Orbital Period (minutes)
Azimuth
Elevation
Range (km)
Doppler Factor
iOS Compass Heading
iOS Angle